Location: Barrio de Buenos Aires
(28.4500°N, 16.2667°W)
Time: 03:53:06
(UTC+00:00)

OAO 2 Rocket - Pass Details

Date: 24 January 2020
Orbit: 676 x 746 km, 35.0° (Epoch: 16 February)

Event Time Altitude Azimuth Distance (km) Brightness Sun altitude
Rises 20:37:38 0° 253° (WSW) 3,009 7.9 -26.2°
Reaches altitude 10° 20:40:01 10° 255° (WSW) 2,098 6.8 -26.8°
Enters shadow 20:44:18 64° 289° (WNW) 750 3.5 -27.7°
